Погода в Знаменке

Россия / Курская область     51°28′24″N   37°45′23″E
темп.,
°C
ветер,
м/с
пор.,
м/с
влажн.,
%
обл.,
%
осадки,
мм/ч
давл.,
гПа
погр.,
м
7 марта, вс
вс700:00−9зсз47910 0.0 1021140
03:00−10з48910 0.0 1021149
06:00−9зюз499744 0.0 1019214
09:00−6зюз7148358 0.0 1016685
12:00−3юз91571100 0.0 10131010
15:00−1юз111967100 0.0 10091306
18:00−2зюз101884100 0.0 10061171
21:00−2зюз101891100 0.1 10051099
8 марта, пн
пн800:00−1з81493100 0.5 1005872
03:00−3зюз3793100 2.6 1005230
06:00−5з2393100 0.6 100546
09:00−3з51092100 1.3 1005649
12:00−1з6108299 0.4 10061133
15:00−2з71079100 0.6 10071230
18:00−5з488796 0.1 1008194
21:00−7з499297 0.1 1010217
9 марта, вт
вт900:00−5зсз4895100 0.4 1011391
03:00−10сз339697 0.4 101262
06:00−11сз3693100 0.1 1013184
09:00−11сз359473 0.1 1015200
12:00−8сз469091 0.0 1016461
15:00−7сз468596 0.1 1018791
18:00−9ссз4791100 0.1 1018337
21:00−13сз369492 0.1 1021111
10 марта, ср
ср1000:00−15сз34950 0.0 102262
03:00−16ссз34930 0.0 102460
06:00−17ссз33950 0.0 102453
09:00−15ссз34920 0.0 1026159
12:00−12с238229 0.0 1026324
15:00−11с227964 0.0 1027373
18:00−12ссв2287100 0.0 102645
21:00−13св128886 0.0 102825
11 марта, чт
чт1100:00−14всв238881 0.0 102844
03:00−14вюв228678 0.0 102927
06:00−14юв238788 0.0 102926
09:00−12ююв358874 0.0 1030200
12:00−7ю357653 0.0 1030517
15:00−5ю356726 0.0 1028886
18:00−7ююв34720 0.0 102735
21:00−8ююв48750 0.0 1027122